Time,TemperatureF,DewpointF,PressureIn,WindDirection,WindDirectionDegrees,WindSpeedMPH,WindSpeedGustMPH,Humidity,HourlyPrecipIn,Conditions,Clouds,dailyrainin,SolarRadiationWatts/m^2,SoftwareType,DateUTC
2013-02-02 00:02:00,29.8,19.6,30.14,WNW,290,11.0,13.0,65,0.00,,,0.00,0.0,meteohub,2013-02-02 06:02:00,
2013-02-02 00:07:00,30.0,20.1,30.14,WNW,296,10.0,12.0,66,0.00,,,0.00,0.0,meteohub,2013-02-02 06:07:00,
2013-02-02 00:12:00,29.8,20.7,30.14,WNW,294,9.0,12.0,68,0.00,,,0.00,0.0,meteohub,2013-02-02 06:12:00,
2013-02-02 00:17:00,29.8,20.7,30.14,WNW,294,9.0,12.0,68,0.00,,,0.00,0.0,meteohub,2013-02-02 06:17:00,
2013-02-02 00:22:00,29.7,20.7,30.14,WNW,294,10.0,12.0,69,0.00,,,0.00,0.0,meteohub,2013-02-02 06:22:00,
2013-02-02 00:27:00,29.7,20.7,30.14,WNW,301,9.0,11.0,69,0.00,,,0.00,0.0,meteohub,2013-02-02 06:27:00,
2013-02-02 00:32:00,29.7,20.7,30.14,WNW,298,9.0,11.0,69,0.00,,,0.00,0.0,meteohub,2013-02-02 06:32:00,
2013-02-02 00:37:00,29.5,20.7,30.16,NNW,345,8.0,11.0,69,0.00,,,0.00,0.0,meteohub,2013-02-02 06:37:00,
2013-02-02 00:42:00,28.9,20.1,30.16,NNW,331,6.0,11.0,69,0.00,,,0.00,0.0,meteohub,2013-02-02 06:42:00,
2013-02-02 00:47:00,28.8,20.3,30.16,NNW,331,5.0,10.0,70,0.00,,,0.00,0.0,meteohub,2013-02-02 06:47:00,
2013-02-02 00:52:00,28.6,20.1,30.16,NNW,327,5.0,8.0,70,0.00,,,0.00,0.0,meteohub,2013-02-02 06:52:00,
2013-02-02 00:57:00,28.2,19.8,30.16,NNW,328,4.0,8.0,70,0.00,,,0.00,0.0,meteohub,2013-02-02 06:57:00,
2013-02-02 01:02:00,28.2,20.1,30.17,NNW,328,3.0,7.0,71,0.00,,,0.00,0.0,meteohub,2013-02-02 07:02:00,
2013-02-02 01:07:00,28.2,20.1,30.17,NW,325,6.0,7.0,71,0.00,,,0.00,0.0,meteohub,2013-02-02 07:07:00,
2013-02-02 01:12:00,27.9,19.8,30.17,NW,323,7.0,7.0,71,0.00,,,0.00,0.0,meteohub,2013-02-02 07:12:00,
2013-02-02 01:17:00,27.1,19.4,30.18,NNW,327,8.0,8.0,72,0.00,,,0.00,0.0,meteohub,2013-02-02 07:17:00,
2013-02-02 01:22:00,27.3,19.8,30.18,NNW,327,8.0,8.0,73,0.00,,,0.00,0.0,meteohub,2013-02-02 07:22:00,
2013-02-02 01:27:00,27.3,19.6,30.18,NW,317,9.0,10.0,72,0.00,,,0.00,0.0,meteohub,2013-02-02 07:27:00,
2013-02-02 01:32:00,27.7,20.5,30.18,NW,312,9.0,10.0,74,0.00,,,0.00,0.0,meteohub,2013-02-02 07:32:00,
2013-02-02 01:37:00,28.8,21.2,30.18,NW,311,9.0,11.0,73,0.00,,,0.00,0.0,meteohub,2013-02-02 07:37:00,
2013-02-02 01:42:00,28.9,21.4,30.18,NW,315,9.0,11.0,73,0.00,,,0.00,0.0,meteohub,2013-02-02 07:42:00,
2013-02-02 01:47:00,29.1,21.2,30.19,NW,311,11.0,11.0,72,0.00,,,0.00,0.0,meteohub,2013-02-02 07:47:00,
2013-02-02 01:52:00,29.5,21.6,30.19,NW,311,10.0,11.0,72,0.00,,,0.00,0.0,meteohub,2013-02-02 07:52:00,
2013-02-02 01:57:00,29.7,21.7,30.19,NW,313,9.0,11.0,72,0.00,,,0.00,0.0,meteohub,2013-02-02 07:57:00,
2013-02-02 02:02:00,29.7,21.4,30.19,NW,315,8.0,11.0,71,0.00,,,0.00,0.0,meteohub,2013-02-02 08:02:00,
2013-02-02 02:07:00,29.8,21.9,30.19,NW,315,7.0,11.0,72,0.00,,,0.00,0.0,meteohub,2013-02-02 08:07:00,
2013-02-02 02:12:00,29.7,21.4,30.20,NW,307,9.0,10.0,71,0.00,,,0.00,0.0,meteohub,2013-02-02 08:12:00,
2013-02-02 02:17:00,28.9,21.0,30.20,NW,305,8.0,10.0,72,0.00,,,0.00,0.0,meteohub,2013-02-02 08:17:00,
2013-02-02 02:22:00,28.2,20.3,30.19,NW,306,8.0,10.0,72,0.00,,,0.00,0.0,meteohub,2013-02-02 08:22:00,
2013-02-02 02:27:00,27.9,20.7,30.20,NW,311,7.0,10.0,74,0.00,,,0.00,0.0,meteohub,2013-02-02 08:27:00,
2013-02-02 02:32:00,28.9,22.1,30.20,NW,308,8.0,10.0,75,0.00,,,0.00,0.0,meteohub,2013-02-02 08:32:00,
2013-02-02 02:37:00,29.7,22.1,30.20,NW,309,8.0,10.0,73,0.00,,,0.00,0.0,meteohub,2013-02-02 08:37:00,
2013-02-02 02:42:00,29.8,21.9,30.21,NW,315,5.0,10.0,72,0.00,,,0.00,0.0,meteohub,2013-02-02 08:42:00,
2013-02-02 02:47:00,29.5,21.6,30.21,NW,315,4.0,10.0,72,0.00,,,0.00,0.0,meteohub,2013-02-02 08:47:00,
2013-02-02 02:52:00,29.3,21.4,30.20,NW,315,4.0,10.0,72,0.00,,,0.00,0.0,meteohub,2013-02-02 08:52:00,
2013-02-02 02:57:00,28.9,21.4,30.20,NW,316,6.0,7.0,73,0.00,,,0.00,0.0,meteohub,2013-02-02 08:57:00,
2013-02-02 03:03:00,28.8,21.6,30.21,NW,320,6.0,7.0,74,0.00,,,0.00,0.0,meteohub,2013-02-02 09:03:00,
2013-02-02 03:08:00,28.4,21.2,30.21,NW,325,7.0,8.0,74,0.00,,,0.00,0.0,meteohub,2013-02-02 09:08:00,
2013-02-02 03:13:00,28.2,21.4,30.21,NW,325,6.0,8.0,75,0.00,,,0.00,0.0,meteohub,2013-02-02 09:13:00,
2013-02-02 03:18:00,28.4,21.6,30.21,NW,321,8.0,9.0,75,0.00,,,0.00,0.0,meteohub,2013-02-02 09:18:00,
2013-02-02 03:23:00,28.8,22.1,30.21,NW,324,10.0,10.0,76,0.00,,,0.00,0.0,meteohub,2013-02-02 09:23:00,
2013-02-02 03:28:00,29.3,22.6,30.21,NNW,327,11.0,11.0,76,0.00,,,0.00,0.0,meteohub,2013-02-02 09:28:00,
2013-02-02 03:33:00,29.7,22.6,30.21,NW,325,10.0,12.0,75,0.00,,,0.00,0.0,meteohub,2013-02-02 09:33:00,
2013-02-02 03:38:00,30.0,23.4,30.21,NNW,327,10.0,12.0,76,0.00,,,0.00,0.0,meteohub,2013-02-02 09:38:00,
2013-02-02 03:43:00,30.4,23.4,30.22,NW,324,9.0,12.0,75,0.00,,,0.00,0.0,meteohub,2013-02-02 09:43:00,
2013-02-02 03:48:00,30.2,23.2,30.22,NW,317,12.0,12.0,75,0.00,,,0.00,0.0,meteohub,2013-02-02 09:48:00,
2013-02-02 03:53:00,30.7,23.4,30.22,NW,319,9.0,12.0,74,0.00,,,0.00,0.0,meteohub,2013-02-02 09:53:00,
2013-02-02 03:58:00,31.1,23.7,30.22,NW,315,10.0,12.0,74,0.00,,,0.00,0.0,meteohub,2013-02-02 09:58:00,
2013-02-02 04:03:00,31.5,23.9,30.23,NW,317,8.0,12.0,73,0.00,,,0.00,0.0,meteohub,2013-02-02 10:03:00,
2013-02-02 04:08:00,31.5,23.9,30.23,NW,320,9.0,11.0,73,0.00,,,0.00,0.0,meteohub,2013-02-02 10:08:00,
2013-02-02 04:13:00,31.8,24.4,30.23,NW,322,10.0,11.0,74,0.00,,,0.00,0.0,meteohub,2013-02-02 10:13:00,
2013-02-02 04:18:00,32.4,24.6,30.24,NW,323,12.0,12.0,73,0.00,,,0.00,0.0,meteohub,2013-02-02 10:18:00,
2013-02-02 04:23:00,32.7,25.3,30.23,NW,321,12.0,12.0,74,0.00,,,0.00,0.0,meteohub,2013-02-02 10:23:00,
2013-02-02 04:28:00,33.1,25.3,30.23,NW,315,10.0,15.0,73,0.00,,,0.00,0.0,meteohub,2013-02-02 10:28:00,
2013-02-02 04:33:00,33.1,25.3,30.23,NW,320,12.0,15.0,73,0.00,,,0.00,0.0,meteohub,2013-02-02 10:33:00,
2013-02-02 04:38:00,33.1,25.7,30.23,NW,324,13.0,15.0,74,0.00,,,0.00,0.0,meteohub,2013-02-02 10:38:00,
2013-02-02 04:43:00,33.3,26.2,30.23,NW,323,11.0,15.0,75,0.00,,,0.00,0.0,meteohub,2013-02-02 10:43:00,
2013-02-02 04:48:00,32.9,25.9,30.24,NW,325,12.0,15.0,75,0.00,,,0.00,0.0,meteohub,2013-02-02 10:48:00,
2013-02-02 04:53:00,32.7,26.1,30.24,NNW,327,12.0,15.0,76,0.00,,,0.00,0.0,meteohub,2013-02-02 10:53:00,
2013-02-02 04:58:00,33.1,26.6,30.24,NNW,328,12.0,15.0,77,0.00,,,0.00,0.0,meteohub,2013-02-02 10:58:00,
2013-02-02 05:03:00,33.1,26.4,30.24,NW,325,14.0,15.0,76,0.00,,,0.00,0.0,meteohub,2013-02-02 11:03:00,
2013-02-02 05:08:00,33.3,26.6,30.25,NW,317,14.0,15.0,76,0.00,,,0.00,0.0,meteohub,2013-02-02 11:08:00,
2013-02-02 05:13:00,33.4,26.8,30.25,NW,321,12.0,15.0,76,0.00,,,0.00,0.0,meteohub,2013-02-02 11:13:00,
2013-02-02 05:18:00,33.3,26.6,30.25,NW,317,11.0,17.0,76,0.00,,,0.00,0.0,meteohub,2013-02-02 11:18:00,
2013-02-02 05:23:00,32.9,26.4,30.25,NW,317,11.0,17.0,77,0.00,,,0.00,0.0,meteohub,2013-02-02 11:23:00,
2013-02-02 05:28:00,32.5,26.1,30.25,NW,313,10.0,15.0,77,0.00,,,0.00,0.0,meteohub,2013-02-02 11:28:00,
2013-02-02 05:33:00,32.4,26.2,30.25,NW,319,10.0,15.0,78,0.00,,,0.00,0.0,meteohub,2013-02-02 11:33:00,
2013-02-02 05:38:00,32.7,26.6,30.25,NW,325,8.0,15.0,78,0.00,,,0.00,0.0,meteohub,2013-02-02 11:38:00,
2013-02-02 05:43:00,32.5,26.4,30.26,NW,315,10.0,14.0,78,0.00,,,0.00,0.0,meteohub,2013-02-02 11:43:00,
2013-02-02 05:48:00,32.4,26.2,30.26,NW,315,11.0,14.0,78,0.00,,,0.00,0.0,meteohub,2013-02-02 11:48:00,
2013-02-02 05:53:00,32.4,26.6,30.26,NW,317,9.0,14.0,79,0.00,,,0.00,0.0,meteohub,2013-02-02 11:53:00,
2013-02-02 05:58:00,32.4,26.6,30.26,NW,319,8.0,14.0,79,0.00,,,0.00,0.0,meteohub,2013-02-02 11:58:00,
2013-02-02 06:03:00,32.0,26.2,30.26,NW,319,11.0,14.0,79,0.00,,,0.00,0.0,meteohub,2013-02-02 12:03:00,
2013-02-02 06:08:00,31.8,26.1,30.26,NW,321,9.0,13.0,79,0.00,,,0.00,0.0,meteohub,2013-02-02 12:08:00,
2013-02-02 06:13:00,31.5,26.1,30.27,NW,318,11.0,13.0,80,0.00,,,0.00,0.0,meteohub,2013-02-02 12:13:00,
2013-02-02 06:18:00,31.5,26.1,30.27,NW,319,9.0,13.0,80,0.00,,,0.00,0.0,meteohub,2013-02-02 12:18:00,
2013-02-02 06:23:00,31.5,26.1,30.27,NW,315,8.0,13.0,80,0.00,,,0.00,0.0,meteohub,2013-02-02 12:23:00,
2013-02-02 06:28:00,31.6,26.2,30.27,NW,320,9.0,13.0,80,0.00,,,0.00,0.0,meteohub,2013-02-02 12:28:00,
2013-02-02 06:33:00,31.6,26.4,30.27,NW,316,11.0,14.0,81,0.00,,,0.00,0.0,meteohub,2013-02-02 12:33:00,
2013-02-02 06:38:00,31.5,26.2,30.27,NW,318,11.0,14.0,81,0.00,,,0.00,0.0,meteohub,2013-02-02 12:38:00,
2013-02-02 06:43:00,31.3,26.1,30.27,NW,317,12.0,12.0,81,0.00,,,0.00,0.0,meteohub,2013-02-02 12:43:00,
2013-02-02 06:48:00,31.3,26.1,30.27,NW,318,11.0,12.0,81,0.00,,,0.00,0.0,meteohub,2013-02-02 12:48:00,
2013-02-02 06:53:00,31.3,26.1,30.27,NW,319,10.0,13.0,81,0.00,,,0.00,0.0,meteohub,2013-02-02 12:53:00,
2013-02-02 06:58:00,30.9,25.7,30.27,NW,319,10.0,13.0,81,0.00,,,0.00,0.0,meteohub,2013-02-02 12:58:00,
2013-02-02 07:03:00,30.9,26.1,30.28,NW,315,11.0,13.0,82,0.00,,,0.00,0.0,meteohub,2013-02-02 13:03:00,
2013-02-02 07:08:00,30.9,26.1,30.28,NW,319,11.0,13.0,82,0.00,,,0.00,0.0,meteohub,2013-02-02 13:08:00,
2013-02-02 07:13:00,30.9,26.1,30.28,NW,320,12.0,14.0,82,0.00,,,0.00,0.0,meteohub,2013-02-02 13:13:00,
2013-02-02 07:18:00,30.9,26.1,30.28,NW,322,10.0,14.0,82,0.00,,,0.00,0.0,meteohub,2013-02-02 13:18:00,
2013-02-02 07:23:00,30.7,25.9,30.29,NW,321,10.0,13.0,82,0.00,,,0.00,0.0,meteohub,2013-02-02 13:23:00,
2013-02-02 07:28:00,30.7,25.9,30.29,NW,323,10.0,13.0,82,0.00,,,0.00,0.0,meteohub,2013-02-02 13:28:00,
2013-02-02 07:33:00,30.9,26.1,30.29,NW,323,8.0,13.0,82,0.00,,,0.00,0.0,meteohub,2013-02-02 13:33:00,
2013-02-02 07:39:00,30.7,25.5,30.30,NW,321,8.0,12.0,81,0.00,,,0.00,0.0,meteohub,2013-02-02 13:39:00,
2013-02-02 07:44:00,30.4,25.5,30.30,NW,314,7.0,11.0,82,0.00,,,0.00,0.0,meteohub,2013-02-02 13:44:00,
2013-02-02 07:49:00,30.0,25.2,30.30,NW,311,7.0,11.0,82,0.00,,,0.00,5.0,meteohub,2013-02-02 13:49:00,
2013-02-02 07:54:00,30.0,25.2,30.30,NW,309,8.0,10.0,82,0.00,,,0.00,7.0,meteohub,2013-02-02 13:54:00,
2013-02-02 07:59:00,30.6,26.1,30.30,NW,313,8.0,9.0,83,0.00,,,0.00,9.0,meteohub,2013-02-02 13:59:00,
2013-02-02 08:04:00,31.3,26.4,30.30,NW,315,9.0,10.0,82,0.00,,,0.00,12.0,meteohub,2013-02-02 14:04:00,
2013-02-02 08:09:00,31.5,26.2,30.30,NW,307,8.0,11.0,81,0.00,,,0.00,21.0,meteohub,2013-02-02 14:09:00,
2013-02-02 08:14:00,31.5,26.2,30.31,NW,304,9.0,11.0,81,0.00,,,0.00,32.0,meteohub,2013-02-02 14:14:00,
2013-02-02 08:19:00,31.8,26.6,30.31,NW,309,10.0,11.0,81,0.00,,,0.00,44.0,meteohub,2013-02-02 14:19:00,
2013-02-02 08:24:00,32.7,27.3,30.31,NW,311,9.0,11.0,80,0.00,,,0.00,60.0,meteohub,2013-02-02 14:24:00,
2013-02-02 08:29:00,33.3,27.5,30.32,NW,309,8.0,11.0,79,0.00,,,0.00,76.0,meteohub,2013-02-02 14:29:00,
2013-02-02 08:34:00,34.0,28.2,30.32,NW,305,7.0,11.0,79,0.00,,,0.00,93.0,meteohub,2013-02-02 14:34:00,
2013-02-02 08:39:00,34.5,28.4,30.32,NW,312,10.0,11.0,78,0.00,,,0.00,113.0,meteohub,2013-02-02 14:39:00,
2013-02-02 08:44:00,35.2,28.8,30.32,NW,304,7.0,11.0,77,0.00,,,0.00,132.0,meteohub,2013-02-02 14:44:00,
2013-02-02 08:49:00,35.4,28.2,30.32,NW,304,7.0,11.0,75,0.00,,,0.00,153.0,meteohub,2013-02-02 14:49:00,
2013-02-02 08:54:00,35.8,28.6,30.32,NW,305,9.0,11.0,75,0.00,,,0.00,174.0,meteohub,2013-02-02 14:54:00,
2013-02-02 08:59:00,36.1,28.9,30.32,NW,311,10.0,11.0,75,0.00,,,0.00,193.0,meteohub,2013-02-02 14:59:00,
2013-02-02 09:04:00,36.7,29.1,30.32,NW,309,9.0,12.0,74,0.00,,,0.00,211.0,meteohub,2013-02-02 15:04:00,
2013-02-02 09:09:00,37.0,29.5,30.32,NW,309,9.0,12.0,74,0.00,,,0.00,225.0,meteohub,2013-02-02 15:09:00,
2013-02-02 09:14:00,37.8,29.8,30.32,NW,308,8.0,12.0,73,0.00,,,0.00,239.0,meteohub,2013-02-02 15:14:00,
2013-02-02 09:19:00,38.5,29.8,30.32,NW,311,7.0,11.0,71,0.00,,,0.00,255.0,meteohub,2013-02-02 15:19:00,
2013-02-02 09:24:00,39.0,29.7,30.32,NW,316,8.0,11.0,69,0.00,,,0.00,271.0,meteohub,2013-02-02 15:24:00,
2013-02-02 09:30:00,39.7,30.0,30.32,NW,313,8.0,12.0,68,0.00,,,0.00,30.0,meteohub,2013-02-02 15:30:00,
2013-02-02 09:35:00,40.3,30.2,30.32,NNW,327,10.0,12.0,67,0.00,,,0.00,302.0,meteohub,2013-02-02 15:35:00,
2013-02-02 09:40:00,41.2,30.7,30.33,NW,326,11.0,12.0,66,0.00,,,0.00,318.0,meteohub,2013-02-02 15:40:00,
2013-02-02 09:45:00,41.7,30.4,30.33,NW,318,9.0,11.0,64,0.00,,,0.00,332.0,meteohub,2013-02-02 15:45:00,
2013-02-02 09:50:00,42.4,30.0,30.33,NW,319,9.0,12.0,61,0.00,,,0.00,348.0,meteohub,2013-02-02 15:50:00,
2013-02-02 09:55:00,42.8,29.8,30.33,NW,315,9.0,12.0,60,0.00,,,0.00,360.0,meteohub,2013-02-02 15:55:00,
2013-02-02 10:00:00,43.5,30.6,30.33,NW,319,7.0,13.0,60,0.00,,,0.00,374.0,meteohub,2013-02-02 16:00:00,
2013-02-02 10:05:00,43.9,29.7,30.33,NW,317,10.0,14.0,57,0.00,,,0.00,385.0,meteohub,2013-02-02 16:05:00,
2013-02-02 10:10:00,44.2,30.4,30.33,NW,319,11.0,14.0,58,0.00,,,0.00,404.0,meteohub,2013-02-02 16:10:00,
2013-02-02 10:15:00,44.6,29.8,30.33,NW,323,10.0,14.0,56,0.00,,,0.00,417.0,meteohub,2013-02-02 16:15:00,
2013-02-02 10:20:00,45.0,30.2,30.33,NNW,330,6.0,13.0,56,0.00,,,0.00,429.0,meteohub,2013-02-02 16:20:00,
2013-02-02 10:25:00,45.3,30.0,30.33,NNW,332,12.0,13.0,55,0.00,,,0.00,443.0,meteohub,2013-02-02 16:25:00,
2013-02-02 10:30:00,46.0,29.8,30.33,NW,325,10.0,12.0,53,0.00,,,0.00,455.0,meteohub,2013-02-02 16:30:00,
2013-02-02 10:35:00,46.6,30.4,30.32,NW,309,11.0,13.0,53,0.00,,,0.00,468.0,meteohub,2013-02-02 16:35:00,
2013-02-02 10:40:00,46.9,29.8,30.32,NNW,340,8.0,13.0,51,0.00,,,0.00,478.0,meteohub,2013-02-02 16:40:00,
2013-02-02 10:45:00,47.5,30.7,30.33,NNW,331,8.0,13.0,52,0.00,,,0.00,492.0,meteohub,2013-02-02 16:45:00,
2013-02-02 10:50:00,47.7,30.0,30.33,NNW,338,7.0,12.0,50,0.00,,,0.00,504.0,meteohub,2013-02-02 16:50:00,
2013-02-02 10:55:00,48.0,30.2,30.33,NNW,327,10.0,12.0,50,0.00,,,0.00,515.0,meteohub,2013-02-02 16:55:00,
2013-02-02 11:00:00,48.6,29.8,30.33,NNW,336,8.0,10.0,48,0.00,,,0.00,526.0,meteohub,2013-02-02 17:00:00,
2013-02-02 11:06:00,48.7,28.9,30.33,NNW,334,10.0,11.0,46,0.00,,,0.00,536.0,meteohub,2013-02-02 17:06:00,
2013-02-02 11:11:00,49.1,28.8,30.33,NNW,340,9.0,12.0,45,0.00,,,0.00,545.0,meteohub,2013-02-02 17:11:00,
2013-02-02 11:16:00,49.5,28.4,30.33,NNW,330,9.0,12.0,44,0.00,,,0.00,555.0,meteohub,2013-02-02 17:16:00,
2013-02-02 11:21:00,50.0,27.1,30.33,North,5,5.0,12.0,41,0.00,,,0.00,564.0,meteohub,2013-02-02 17:21:00,
2013-02-02 11:26:00,50.7,26.6,30.32,North,355,10.0,14.0,39,0.00,,,0.00,575.0,meteohub,2013-02-02 17:26:00,
2013-02-02 11:31:00,50.7,26.1,30.32,NNE,23,7.0,17.0,38,0.00,,,0.00,582.0,meteohub,2013-02-02 17:31:00,
2013-02-02 11:36:00,51.1,25.7,30.33,North,355,8.0,18.0,37,0.00,,,0.00,591.0,meteohub,2013-02-02 17:36:00,
2013-02-02 11:41:00,50.9,26.2,30.32,NNW,337,9.0,18.0,38,0.00,,,0.00,598.0,meteohub,2013-02-02 17:41:00,
2013-02-02 11:46:00,51.3,25.9,30.32,North,355,13.0,18.0,37,0.00,,,0.00,606.0,meteohub,2013-02-02 17:46:00,
2013-02-02 11:51:00,51.4,25.3,30.32,North,5,15.0,18.0,36,0.00,,,0.00,613.0,meteohub,2013-02-02 17:51:00,
2013-02-02 11:56:00,51.4,25.3,30.32,NNE,32,9.0,19.0,36,0.00,,,0.00,617.0,meteohub,2013-02-02 17:56:00,
2013-02-02 12:01:00,51.6,25.5,30.32,NNW,329,11.0,19.0,36,0.00,,,0.00,622.0,meteohub,2013-02-02 18:01:00,
2013-02-02 12:06:00,51.8,25.7,30.32,North,5,4.0,19.0,36,0.00,,,0.00,629.0,meteohub,2013-02-02 18:06:00,
2013-02-02 12:11:00,52.0,25.2,30.32,NNW,348,14.0,17.0,35,0.00,,,0.00,564.0,meteohub,2013-02-02 18:11:00,
2013-02-02 12:17:00,51.6,24.8,30.31,NNW,343,11.0,17.0,35,0.00,,,0.00,636.0,meteohub,2013-02-02 18:17:00,
2013-02-02 12:22:00,51.6,24.8,30.31,NNE,17,11.0,17.0,35,0.00,,,0.00,635.0,meteohub,2013-02-02 18:22:00,
2013-02-02 12:27:00,51.8,24.3,30.31,NNW,345,7.0,16.0,34,0.00,,,0.00,636.0,meteohub,2013-02-02 18:27:00,
2013-02-02 12:32:00,52.0,25.2,30.30,NNW,340,7.0,16.0,35,0.00,,,0.00,635.0,meteohub,2013-02-02 18:32:00,
2013-02-02 12:37:00,52.2,25.3,30.30,North,9,11.0,16.0,35,0.00,,,0.00,649.0,meteohub,2013-02-02 18:37:00,
2013-02-02 12:42:00,52.2,24.6,30.30,NNE,17,10.0,15.0,34,0.00,,,0.00,649.0,meteohub,2013-02-02 18:42:00,
2013-02-02 12:47:00,52.2,24.6,30.30,North,355,5.0,16.0,34,0.00,,,0.00,638.0,meteohub,2013-02-02 18:47:00,
2013-02-02 12:52:00,52.7,25.2,30.30,NNE,32,10.0,16.0,34,0.00,,,0.00,642.0,meteohub,2013-02-02 18:52:00,
2013-02-02 12:57:00,52.9,24.6,30.29,NNE,26,10.0,14.0,33,0.00,,,0.00,650.0,meteohub,2013-02-02 18:57:00,
2013-02-02 13:02:00,52.5,25.0,30.29,NNE,20,11.0,15.0,34,0.00,,,0.00,643.0,meteohub,2013-02-02 19:02:00,
2013-02-02 13:07:00,52.5,25.0,30.29,NNE,19,3.0,15.0,34,0.00,,,0.00,659.0,meteohub,2013-02-02 19:07:00,
2013-02-02 13:12:00,52.9,25.3,30.28,NE,49,5.0,15.0,34,0.00,,,0.00,659.0,meteohub,2013-02-02 19:12:00,
2013-02-02 13:17:00,53.1,25.3,30.28,North,5,6.0,12.0,34,0.00,,,0.00,643.0,meteohub,2013-02-02 19:17:00,
2013-02-02 13:22:00,53.4,25.0,30.27,NNW,332,10.0,10.0,33,0.00,,,0.00,617.0,meteohub,2013-02-02 19:22:00,
2013-02-02 13:27:00,53.8,23.9,30.27,NNW,345,12.0,15.0,31,0.00,,,0.00,642.0,meteohub,2013-02-02 19:27:00,
2013-02-02 13:32:00,53.4,24.3,30.27,NNW,331,8.0,15.0,32,0.00,,,0.00,633.0,meteohub,2013-02-02 19:32:00,
2013-02-02 13:37:00,53.1,24.8,30.27,NNW,337,8.0,15.0,33,0.00,,,0.00,615.0,meteohub,2013-02-02 19:37:00,
2013-02-02 13:42:00,53.2,24.8,30.27,NNE,14,3.0,13.0,33,0.00,,,0.00,608.0,meteohub,2013-02-02 19:42:00,
2013-02-02 13:47:00,53.4,24.3,30.27,North,5,4.0,11.0,32,0.00,,,0.00,577.0,meteohub,2013-02-02 19:47:00,
2013-02-02 13:52:00,53.2,24.1,30.27,NW,320,4.0,11.0,32,0.00,,,0.00,636.0,meteohub,2013-02-02 19:52:00,
2013-02-02 13:58:00,53.2,24.1,30.26,North,355,4.0,11.0,32,0.00,,,0.00,636.0,meteohub,2013-02-02 19:58:00,
2013-02-02 14:03:00,53.8,24.6,30.26,North,5,7.0,10.0,32,0.00,,,0.00,636.0,meteohub,2013-02-02 20:03:00,
2013-02-02 14:08:00,54.1,24.1,30.26,North,0,8.0,10.0,31,0.00,,,0.00,571.0,meteohub,2013-02-02 20:08:00,
2013-02-02 14:13:00,53.8,24.6,30.26,NW,324,0.0,10.0,32,0.00,,,0.00,647.0,meteohub,2013-02-02 20:13:00,
2013-02-02 14:18:00,54.1,24.1,30.26,West,275,3.0,10.0,31,0.00,,,0.00,599.0,meteohub,2013-02-02 20:18:00,
2013-02-02 14:23:00,54.3,25.2,30.26,NW,306,2.0,9.0,32,0.00,,,0.00,605.0,meteohub,2013-02-02 20:23:00,
2013-02-02 14:28:00,54.1,24.1,30.26,NW,317,3.0,9.0,31,0.00,,,0.00,575.0,meteohub,2013-02-02 20:28:00,
2013-02-02 14:33:00,54.0,24.1,30.26,NW,317,3.0,9.0,31,0.00,,,0.00,547.0,meteohub,2013-02-02 20:33:00,
2013-02-02 14:38:00,54.1,23.4,30.25,NNW,342,8.0,8.0,30,0.00,,,0.00,564.0,meteohub,2013-02-02 20:38:00,
2013-02-02 14:43:00,54.0,23.2,30.25,NNW,331,8.0,11.0,30,0.00,,,0.00,524.0,meteohub,2013-02-02 20:43:00,
2013-02-02 14:48:00,54.0,24.1,30.25,NNW,348,4.0,11.0,31,0.00,,,0.00,548.0,meteohub,2013-02-02 20:48:00,
2013-02-02 14:53:00,53.8,23.9,30.25,NW,323,3.0,11.0,31,0.00,,,0.00,483.0,meteohub,2013-02-02 20:53:00,
2013-02-02 14:59:00,54.5,23.7,30.25,NNW,341,7.0,10.0,30,0.00,,,0.00,452.0,meteohub,2013-02-02 20:59:00,
2013-02-02 15:04:00,54.3,22.6,30.25,NNW,331,0.0,8.0,29,0.00,,,0.00,483.0,meteohub,2013-02-02 21:04:00,
2013-02-02 15:09:00,54.5,22.8,30.25,NNW,331,3.0,8.0,29,0.00,,,0.00,483.0,meteohub,2013-02-02 21:09:00,
2013-02-02 15:14:00,54.5,22.8,30.25,NNW,331,2.0,8.0,29,0.00,,,0.00,466.0,meteohub,2013-02-02 21:14:00,
2013-02-02 15:19:00,54.7,23.0,30.25,NNW,331,0.0,7.0,29,0.00,,,0.00,485.0,meteohub,2013-02-02 21:19:00,
2013-02-02 15:24:00,54.9,23.2,30.25,WNW,298,1.0,5.0,29,0.00,,,0.00,489.0,meteohub,2013-02-02 21:24:00,
2013-02-02 15:29:00,55.0,23.4,30.25,WSW,258,2.0,7.0,29,0.00,,,0.00,446.0,meteohub,2013-02-02 21:29:00,
2013-02-02 15:34:00,55.2,23.5,30.25,WSW,256,0.0,7.0,29,0.00,,,0.00,431.0,meteohub,2013-02-02 21:34:00,
2013-02-02 15:39:00,55.8,23.2,30.25,WSW,257,2.0,8.0,28,0.00,,,0.00,418.0,meteohub,2013-02-02 21:39:00,
2013-02-02 15:44:00,55.8,23.2,30.24,WSW,257,5.0,8.0,28,0.00,,,0.00,394.0,meteohub,2013-02-02 21:44:00,
2013-02-02 15:49:00,55.9,23.4,30.24,West,263,3.0,9.0,28,0.00,,,0.00,378.0,meteohub,2013-02-02 21:49:00,
2013-02-02 15:54:00,56.1,23.4,30.25,WNW,287,7.0,9.0,28,0.00,,,0.00,366.0,meteohub,2013-02-02 21:54:00,
2013-02-02 15:59:00,55.8,23.2,30.24,West,280,5.0,9.0,28,0.00,,,0.00,376.0,meteohub,2013-02-02 21:59:00,
2013-02-02 16:04:00,55.6,23.9,30.24,WSW,252,4.0,12.0,29,0.00,,,0.00,364.0,meteohub,2013-02-02 22:04:00,
2013-02-02 16:10:00,55.6,23.0,30.24,SW,225,2.0,12.0,28,0.00,,,0.00,341.0,meteohub,2013-02-02 22:10:00,
2013-02-02 16:15:00,55.8,23.2,30.25,SW,225,1.0,12.0,28,0.00,,,0.00,316.0,meteohub,2013-02-02 22:15:00,
2013-02-02 16:20:00,56.1,23.4,30.24,SW,225,0.0,8.0,28,0.00,,,0.00,323.0,meteohub,2013-02-02 22:20:00,
2013-02-02 16:25:00,56.3,23.5,30.24,WSW,241,8.0,8.0,28,0.00,,,0.00,297.0,meteohub,2013-02-02 22:25:00,
2013-02-02 16:30:00,55.9,23.4,30.24,WSW,242,6.0,11.0,28,0.00,,,0.00,299.0,meteohub,2013-02-02 22:30:00,
2013-02-02 16:35:00,55.8,23.2,30.24,WSW,252,5.0,11.0,28,0.00,,,0.00,220.0,meteohub,2013-02-02 22:35:00,
2013-02-02 16:40:00,55.8,22.3,30.25,SW,236,10.0,11.0,27,0.00,,,0.00,244.0,meteohub,2013-02-02 22:40:00,
2013-02-02 16:45:00,55.8,22.3,30.25,SW,225,6.0,11.0,27,0.00,,,0.00,211.0,meteohub,2013-02-02 22:45:00,
2013-02-02 16:50:00,55.6,22.1,30.25,WSW,246,4.0,11.0,27,0.00,,,0.00,192.0,meteohub,2013-02-02 22:50:00,
2013-02-02 16:55:00,55.8,22.3,30.24,WSW,255,9.0,11.0,27,0.00,,,0.00,188.0,meteohub,2013-02-02 22:55:00,
2013-02-02 17:00:00,55.6,22.1,30.24,SW,232,6.0,12.0,27,0.00,,,0.00,148.0,meteohub,2013-02-02 23:00:00,
2013-02-02 17:05:00,55.2,21.7,30.24,SW,232,6.0,12.0,27,0.00,,,0.00,139.0,meteohub,2013-02-02 23:05:00,
2013-02-02 17:10:00,55.0,21.7,30.24,SW,231,6.0,11.0,27,0.00,,,0.00,118.0,meteohub,2013-02-02 23:10:00,
2013-02-02 17:15:00,55.0,22.5,30.23,SW,227,2.0,11.0,28,0.00,,,0.00,113.0,meteohub,2013-02-02 23:15:00,
2013-02-02 17:20:00,55.0,22.5,30.24,SW,227,6.0,11.0,28,0.00,,,0.00,84.0,meteohub,2013-02-02 23:20:00,
2013-02-02 17:25:00,54.7,23.0,30.24,SW,217,7.0,7.0,29,0.00,,,0.00,72.0,meteohub,2013-02-02 23:25:00,
2013-02-02 17:30:00,54.3,22.6,30.23,SSW,212,6.0,9.0,29,0.00,,,0.00,81.0,meteohub,2013-02-02 23:30:00,
2013-02-02 17:35:00,54.1,22.6,30.23,SSW,207,5.0,9.0,29,0.00,,,0.00,79.0,meteohub,2013-02-02 23:35:00,
2013-02-02 17:40:00,54.1,23.4,30.23,SSW,200,5.0,8.0,30,0.00,,,0.00,63.0,meteohub,2013-02-02 23:40:00,
2013-02-02 17:46:00,54.1,23.4,30.23,SSW,200,5.0,7.0,30,0.00,,,0.00,62.0,meteohub,2013-02-02 23:46:00,
2013-02-02 17:51:00,54.0,23.2,30.23,SSW,200,5.0,7.0,30,0.00,,,0.00,47.0,meteohub,2013-02-02 23:51:00,
2013-02-02 17:56:00,53.6,22.8,30.23,SSW,198,5.0,6.0,30,0.00,,,0.00,33.0,meteohub,2013-02-02 23:56:00,
2013-02-02 18:01:00,53.1,22.5,30.24,SSW,198,6.0,6.0,30,0.00,,,0.00,18.0,meteohub,2013-02-03 00:01:00,
2013-02-02 18:06:00,52.3,22.6,30.24,SSW,198,6.0,6.0,31,0.00,,,0.00,11.0,meteohub,2013-02-03 00:06:00,
2013-02-02 18:11:00,51.4,21.7,30.23,SSW,198,6.0,7.0,31,0.00,,,0.00,5.0,meteohub,2013-02-03 00:11:00,
2013-02-02 18:16:00,50.9,22.1,30.23,SSW,196,6.0,7.0,32,0.00,,,0.00,0.0,meteohub,2013-02-03 00:16:00,
2013-02-02 18:21:00,50.4,21.6,30.23,SSW,196,6.0,7.0,32,0.00,,,0.00,0.0,meteohub,2013-02-03 00:21:00,
2013-02-02 18:26:00,49.8,21.2,30.23,SSW,196,5.0,7.0,32,0.00,,,0.00,0.0,meteohub,2013-02-03 00:26:00,
2013-02-02 18:31:00,49.3,21.4,30.23,SSW,196,6.0,7.0,33,0.00,,,0.00,0.0,meteohub,2013-02-03 00:31:00,
2013-02-02 18:36:00,48.4,21.4,30.24,SSW,196,6.0,7.0,34,0.00,,,0.00,0.0,meteohub,2013-02-03 00:36:00,
2013-02-02 18:41:00,47.7,21.4,30.24,SSW,196,6.0,7.0,35,0.00,,,0.00,0.0,meteohub,2013-02-03 00:41:00,
2013-02-02 18:46:00,47.5,21.9,30.24,SSW,196,6.0,7.0,36,0.00,,,0.00,0.0,meteohub,2013-02-03 00:46:00,
2013-02-02 18:51:00,47.5,21.9,30.24,SSW,196,6.0,7.0,36,0.00,,,0.00,0.0,meteohub,2013-02-03 00:51:00,
2013-02-02 18:56:00,47.5,21.9,30.24,SSW,196,6.0,7.0,36,0.00,,,0.00,0.0,meteohub,2013-02-03 00:56:00,
2013-02-02 19:02:00,47.1,22.1,30.24,SSW,196,6.0,7.0,37,0.00,,,0.00,0.0,meteohub,2013-02-03 01:02:00,
2013-02-02 19:07:00,46.8,21.9,30.24,SSW,196,7.0,7.0,37,0.00,,,0.00,0.0,meteohub,2013-02-03 01:07:00,
2013-02-02 19:12:00,46.2,21.4,30.24,SSW,196,8.0,8.0,37,0.00,,,0.00,0.0,meteohub,2013-02-03 01:12:00,
2013-02-02 19:17:00,46.2,20.7,30.25,SSW,196,9.0,9.0,36,0.00,,,0.00,0.0,meteohub,2013-02-03 01:17:00,
2013-02-02 19:22:00,45.5,20.7,30.24,SSW,196,9.0,10.0,37,0.00,,,0.00,0.0,meteohub,2013-02-03 01:22:00,
2013-02-02 19:27:00,44.4,20.5,30.24,SSW,196,8.0,10.0,38,0.00,,,0.00,0.0,meteohub,2013-02-03 01:27:00,
2013-02-02 19:32:00,43.5,20.1,30.25,SSW,195,9.0,10.0,39,0.00,,,0.00,0.0,meteohub,2013-02-03 01:32:00,
2013-02-02 19:37:00,42.8,20.7,30.24,SSW,205,9.0,10.0,41,0.00,,,0.00,0.0,meteohub,2013-02-03 01:37:00,
2013-02-02 19:42:00,42.4,20.5,30.24,SSW,212,10.0,11.0,41,0.00,,,0.00,0.0,meteohub,2013-02-03 01:42:00,
2013-02-02 19:47:00,42.1,20.7,30.24,SW,215,11.0,12.0,42,0.00,,,0.00,0.0,meteohub,2013-02-03 01:47:00,
2013-02-02 19:52:00,41.4,20.5,30.24,SW,215,10.0,12.0,43,0.00,,,0.00,0.0,meteohub,2013-02-03 01:52:00,
2013-02-02 19:57:00,40.8,20.7,30.25,SW,219,10.0,12.0,44,0.00,,,0.00,0.0,meteohub,2013-02-03 01:57:00,
2013-02-02 20:02:00,40.6,21.6,30.25,SW,221,11.0,12.0,46,0.00,,,0.00,0.0,meteohub,2013-02-03 02:02:00,
2013-02-02 20:07:00,40.3,21.2,30.25,SW,223,11.0,11.0,46,0.00,,,0.00,0.0,meteohub,2013-02-03 02:07:00,
2013-02-02 20:13:00,40.3,21.7,30.25,SW,223,11.0,12.0,47,0.00,,,0.00,0.0,meteohub,2013-02-03 02:13:00,
2013-02-02 20:18:00,39.9,21.7,30.24,SW,223,11.0,12.0,48,0.00,,,0.00,0.0,meteohub,2013-02-03 02:18:00,
2013-02-02 20:23:00,39.7,21.7,30.25,SW,223,11.0,13.0,48,0.00,,,0.00,0.0,meteohub,2013-02-03 02:23:00,
2013-02-02 20:28:00,39.6,21.6,30.25,SW,223,11.0,13.0,48,0.00,,,0.00,0.0,meteohub,2013-02-03 02:28:00,
2013-02-02 20:33:00,39.6,21.6,30.25,SW,225,11.0,13.0,48,0.00,,,0.00,0.0,meteohub,2013-02-03 02:33:00,
2013-02-02 20:38:00,39.7,21.7,30.25,SW,223,11.0,13.0,48,0.00,,,0.00,0.0,meteohub,2013-02-03 02:38:00,
2013-02-02 20:43:00,39.7,21.7,30.25,SW,223,10.0,13.0,48,0.00,,,0.00,0.0,meteohub,2013-02-03 02:43:00,
2013-02-02 20:48:00,39.7,21.7,30.25,SW,221,9.0,13.0,48,0.00,,,0.00,0.0,meteohub,2013-02-03 02:48:00,
2013-02-02 20:53:00,39.6,21.6,30.25,SW,222,11.0,13.0,48,0.00,,,0.00,0.0,meteohub,2013-02-03 02:53:00,
2013-02-02 20:58:00,39.4,21.4,30.25,SW,223,11.0,12.0,48,0.00,,,0.00,0.0,meteohub,2013-02-03 02:58:00,
2013-02-02 21:03:00,39.2,21.2,30.25,SW,222,11.0,12.0,48,0.00,,,0.00,0.0,meteohub,2013-02-03 03:03:00,
2013-02-02 21:08:00,39.2,21.2,30.25,SW,221,12.0,12.0,48,0.00,,,0.00,0.0,meteohub,2013-02-03 03:08:00,
2013-02-02 21:14:00,39.2,21.2,30.25,SW,222,11.0,12.0,48,0.00,,,0.00,0.0,meteohub,2013-02-03 03:14:00,
2013-02-02 21:19:00,39.0,21.6,30.25,SW,223,12.0,12.0,49,0.00,,,0.00,0.0,meteohub,2013-02-03 03:19:00,
2013-02-02 21:24:00,39.0,21.6,30.25,SW,221,13.0,13.0,49,0.00,,,0.00,0.0,meteohub,2013-02-03 03:24:00,
2013-02-02 21:29:00,38.8,21.4,30.25,SW,223,12.0,13.0,49,0.00,,,0.00,0.0,meteohub,2013-02-03 03:29:00,
2013-02-02 21:34:00,38.7,21.2,30.25,SW,219,11.0,14.0,49,0.00,,,0.00,0.0,meteohub,2013-02-03 03:34:00,
2013-02-02 21:39:00,37.8,20.3,30.25,SW,215,10.0,14.0,49,0.00,,,0.00,0.0,meteohub,2013-02-03 03:39:00,
2013-02-02 21:44:00,36.9,20.5,30.25,SW,215,11.0,14.0,51,0.00,,,0.00,0.0,meteohub,2013-02-03 03:44:00,
2013-02-02 21:49:00,36.5,20.5,30.25,SSW,209,10.0,13.0,52,0.00,,,0.00,0.0,meteohub,2013-02-03 03:49:00,
2013-02-02 21:54:00,36.1,20.3,30.25,SSW,209,8.0,12.0,52,0.00,,,0.00,0.0,meteohub,2013-02-03 03:54:00,
2013-02-02 21:59:00,36.1,20.7,30.25,SSW,205,8.0,12.0,53,0.00,,,0.00,0.0,meteohub,2013-02-03 03:59:00,
2013-02-02 22:04:00,36.1,20.3,30.25,SSW,200,7.0,12.0,52,0.00,,,0.00,0.0,meteohub,2013-02-03 04:04:00,
2013-02-02 22:09:00,36.1,20.7,30.25,SSW,200,7.0,10.0,53,0.00,,,0.00,0.0,meteohub,2013-02-03 04:09:00,
2013-02-02 22:14:00,36.7,20.7,30.25,SSW,203,9.0,9.0,52,0.00,,,0.00,0.0,meteohub,2013-02-03 04:14:00,
2013-02-02 22:19:00,36.9,20.5,30.25,SSW,211,9.0,9.0,51,0.00,,,0.00,0.0,meteohub,2013-02-03 04:19:00,
2013-02-02 22:24:00,36.7,20.3,30.25,SSW,210,7.0,12.0,51,0.00,,,0.00,0.0,meteohub,2013-02-03 04:24:00,
2013-02-02 22:29:00,36.0,19.6,30.25,SW,215,11.0,12.0,51,0.00,,,0.00,0.0,meteohub,2013-02-03 04:29:00,
2013-02-02 22:34:00,35.1,19.6,30.25,SSW,213,10.0,12.0,53,0.00,,,0.00,0.0,meteohub,2013-02-03 04:34:00,
2013-02-02 22:40:00,34.9,20.3,30.25,SSW,213,11.0,13.0,55,0.00,,,0.00,0.0,meteohub,2013-02-03 04:40:00,
2013-02-02 22:45:00,34.7,19.8,30.25,SW,215,13.0,13.0,54,0.00,,,0.00,0.0,meteohub,2013-02-03 04:45:00,
2013-02-02 22:50:00,35.1,20.1,30.25,SW,219,8.0,13.0,54,0.00,,,0.00,0.0,meteohub,2013-02-03 04:50:00,
2013-02-02 22:55:00,35.1,20.5,30.25,SW,218,13.0,13.0,55,0.00,,,0.00,0.0,meteohub,2013-02-03 04:55:00,
2013-02-02 23:00:00,36.3,21.2,30.25,SSW,206,9.0,13.0,54,0.00,,,0.00,0.0,meteohub,2013-02-03 05:00:00,
2013-02-02 23:02:00,36.9,21.4,30.25,SW,215,11.0,17.0,53,0.00,,,0.00,0.0,meteohub,2013-02-03 05:02:00,
2013-02-02 23:03:00,37.0,21.6,30.25,SW,217,11.0,17.0,53,0.00,,,0.00,0.0,meteohub,2013-02-03 05:03:00,
2013-02-02 23:08:00,36.3,20.8,30.25,SW,221,11.0,17.0,53,0.00,,,0.00,0.0,meteohub,2013-02-03 05:08:00,
2013-02-02 23:13:00,36.3,20.8,30.24,SW,217,15.0,17.0,53,0.00,,,0.00,0.0,meteohub,2013-02-03 05:13:00,
2013-02-02 23:18:00,36.5,21.0,30.24,SW,223,12.0,15.0,53,0.00,,,0.00,0.0,meteohub,2013-02-03 05:18:00,
2013-02-02 23:23:00,36.3,20.8,30.24,SW,226,11.0,15.0,53,0.00,,,0.00,0.0,meteohub,2013-02-03 05:23:00,
2013-02-02 23:28:00,36.0,20.5,30.24,SW,225,12.0,15.0,53,0.00,,,0.00,0.0,meteohub,2013-02-03 05:28:00,
2013-02-02 23:33:00,35.8,20.8,30.24,SW,223,13.0,14.0,54,0.00,,,0.00,0.0,meteohub,2013-02-03 05:33:00,
2013-02-02 23:38:00,36.0,21.4,30.25,SW,222,12.0,14.0,55,0.00,,,0.00,0.0,meteohub,2013-02-03 05:38:00,
2013-02-02 23:43:00,35.8,21.2,30.24,SW,225,12.0,14.0,55,0.00,,,0.00,0.0,meteohub,2013-02-03 05:43:00,
2013-02-02 23:48:00,35.6,21.4,30.24,SW,224,13.0,14.0,56,0.00,,,0.00,0.0,meteohub,2013-02-03 05:48:00,
2013-02-02 23:53:00,35.8,21.2,30.24,SW,226,13.0,14.0,55,0.00,,,0.00,0.0,meteohub,2013-02-03 05:53:00,
2013-02-02 23:58:00,35.4,21.2,30.24,SW,228,13.0,15.0,56,0.00,,,0.00,0.0,meteohub,2013-02-03 05:58:00,